| time (UTC) | temp F | wind direction | speed knots | gust knots | rain 1hr in | rain 24hr in | rain mn in | humidity % | barometer mb |
| 20260507180540 | 69 | 163 | 3.5 | 8.7 | 0.00 | 0.00 | 0.00 | 39 | 1021.2 |
| 20260507180048 | 69 | 151 | 4.3 | 8.7 | 0.00 | 0.00 | 0.00 | 40 | 1021.2 |
| 20260507175539 | 69 | 153 | 4.3 | 8.7 | 0.00 | 0.00 | 0.00 | 39 | 1021.2 |
| 20260507175039 | 68 | 128 | 3.5 | 8.7 | 0.00 | 0.00 | 0.00 | 41 | 1021.2 |
| 20260507174555 | 69 | 132 | 3.5 | 8.7 | 0.00 | 0.00 | 0.00 | 42 | 1021.2 |
| 20260507174039 | 68 | 154 | 3.5 | 8.7 | 0.00 | 0.00 | 0.00 | 42 | 1021.2 |
| 20260507173540 | 68 | 166 | 3.5 | 8.7 | 0.00 | 0.00 | 0.00 | 40 | 1021.2 |
| 20260507173113 | 68 | 72 | 4.3 | 10.4 | 0.00 | 0.00 | 0.00 | 41 | 1021.2 |
| 20260507172542 | 68 | 194 | 3.5 | 10.4 | 0.00 | 0.00 | 0.00 | 43 | 1021.2 |
| 20260507172039 | 68 | 123 | 4.3 | 7.0 | 0.00 | 0.00 | 0.00 | 41 | 1021.2 |
| 20260507171548 | 68 | 212 | 3.5 | 7.8 | 0.00 | 0.00 | 0.00 | 40 | 1021.2 |
| 20260507171040 | 68 | 155 | 2.6 | 10.4 | 0.00 | 0.00 | 0.00 | 40 | 1021.2 |
| 20260507170539 | 68 | 192 | 4.3 | 10.4 | 0.00 | 0.00 | 0.00 | 41 | 1021.2 |
| 20260507170111 | 68 | 179 | 4.3 | 8.7 | 0.00 | 0.00 | 0.00 | 40 | 1021.2 |
| 20260507165540 | 68 | 87 | 1.7 | 7.0 | 0.00 | 0.00 | 0.00 | 39 | 1021.2 |
| 20260507165039 | 68 | 68 | 3.5 | 7.0 | 0.00 | 0.00 | 0.00 | 39 | 1021.2 |
| 20260507164555 | 67 | 62 | 2.6 | 8.7 | 0.00 | 0.00 | 0.00 | 39 | 1021.2 |
| 20260507164039 | 66 | 65 | 3.5 | 8.7 | 0.00 | 0.00 | 0.00 | 42 | 1021.2 |
| 20260507163542 | 66 | 90 | 2.6 | 7.8 | 0.00 | 0.00 | 0.00 | 43 | 1021.2 |
| 20260507163048 | 65 | 45 | 2.6 | 7.8 | 0.00 | 0.00 | 0.00 | 44 | 1021.2 |
| 20260507162537 | 65 | 63 | 1.7 | 6.1 | 0.00 | 0.00 | 0.00 | 44 | 1021.2 |
| 20260507162043 | 64 | 40 | 1.7 | 7.0 | 0.00 | 0.00 | 0.00 | 48 | 1021.2 |
| 20260507161600 | 64 | 66 | 2.6 | 7.0 | 0.00 | 0.00 | 0.00 | 47 | 1021.2 |
| 20260507161040 | 63 | 61 | 3.5 | 7.0 | 0.00 | 0.00 | 0.00 | 47 | 1021.2 |
| 20260507160539 | 63 | 81 | 1.7 | 5.2 | 0.00 | 0.00 | 0.00 | 51 | 1021.2 |
| 20260507160045 | 63 | 127 | 2.6 | 5.2 | 0.00 | 0.00 | 0.00 | 52 | 1021.2 |
| 20260507155540 | 62 | 88 | 1.7 | 5.2 | 0.00 | 0.00 | 0.00 | 53 | 1021.2 |
| 20260507155037 | 61 | 94 | 1.7 | 6.1 | 0.00 | 0.00 | 0.00 | 54 | 1021.2 |
| 20260507154545 | 61 | 49 | 2.6 | 6.1 | 0.00 | 0.00 | 0.00 | 55 | 1021.2 |
| 20260507154039 | 60 | 89 | 2.6 | 6.1 | 0.00 | 0.00 | 0.00 | 56 | 1021.2 |
| 20260507153540 | 60 | 81 | 2.6 | 6.1 | 0.00 | 0.00 | 0.00 | 58 | 1021.2 |
| 20260507153056 | 59 | 28 | 1.7 | 5.2 | 0.00 | 0.00 | 0.00 | 58 | 1021.2 |
| 20260507152540 | 59 | 57 | 2.6 | 6.1 | 0.00 | 0.00 | 0.00 | 60 | 1021.2 |
| 20260507152039 | 58 | 63 | 2.6 | 6.1 | 0.00 | 0.00 | 0.00 | 59 | 1021.2 |
| 20260507151548 | 58 | 72 | 0.9 | 5.2 | 0.00 | 0.00 | 0.00 | 59 | 1021.2 |
| 20260507151039 | 57 | 67 | 2.6 | 4.3 | 0.00 | 0.00 | 0.00 | 59 | 1021.2 |
| 20260507150539 | 57 | 46 | 1.7 | 6.1 | 0.00 | 0.00 | 0.00 | 59 | 1021.2 |
| 20260507150100 | 57 | 65 | 3.5 | 6.1 | 0.00 | 0.00 | 0.00 | 58 | 1021.2 |
| 20260507145539 | 57 | 63 | 1.7 | 6.1 | 0.00 | 0.00 | 0.00 | 58 | 1021.2 |
| 20260507145041 | 56 | 66 | 1.7 | 6.1 | 0.00 | 0.00 | 0.00 | 58 | 1021.2 |
| 20260507144548 | 56 | 58 | 1.7 | 4.3 | 0.00 | 0.00 | 0.00 | 58 | 1021.2 |
| 20260507144043 | 56 | 72 | 1.7 | 4.3 | 0.00 | 0.00 | 0.00 | 58 | 1021.2 |
| 20260507143539 | 55 | 131 | 1.7 | 4.3 | 0.00 | 0.00 | 0.00 | 58 | 1021.2 |
| 20260507143048 | 55 | 104 | 1.7 | 4.3 | 0.00 | 0.00 | 0.00 | 58 | 1021.2 |
| 20260507142539 | 55 | 74 | 0.9 | 3.5 | 0.00 | 0.00 | 0.00 | 59 | 1021.2 |
| 20260507142039 | 53 | 165 | 1.7 | 4.3 | 0.00 | 0.00 | 0.00 | 60 | 1021.2 |
| 20260507141619 | 53 | 0 | 0.9 | 4.3 | 0.00 | 0.00 | 0.00 | 63 | 1021.2 |
| 20260507141041 | 53 | 64 | 2.6 | 4.3 | 0.00 | 0.00 | 0.00 | 61 | 1021.2 |
| 20260507140540 | 52 | 72 | 1.7 | 6.1 | 0.00 | 0.00 | 0.00 | 61 | 1021.2 |
| 20260507140049 | 52 | 71 | 2.6 | 6.1 | 0.00 | 0.00 | 0.00 | 61 | 1021.2 |
| 20260507135539 | 53 | 68 | 1.7 | 4.3 | 0.00 | 0.00 | 0.00 | 60 | 1021.2 |
| 20260507135038 | 53 | 75 | 0.0 | 2.6 | 0.00 | 0.00 | 0.00 | 60 | 1021.2 |
| 20260507134549 | 52 | 79 | 0.9 | 2.6 | 0.00 | 0.00 | 0.00 | 60 | 1021.2 |
| 20260507134038 | 53 | 75 | 0.0 | 1.7 | 0.00 | 0.00 | 0.00 | 59 | 1021.2 |
| 20260507133539 | 52 | 0 | 0.0 | 2.6 | 0.00 | 0.00 | 0.00 | 61 | 1021.2 |
| 20260507133048 | 51 | 68 | 0.9 | 2.6 | 0.00 | 0.00 | 0.00 | 61 | 1021.2 |
| 20260507132539 | 51 | 68 | 0.0 | 2.6 | 0.00 | 0.00 | 0.00 | 61 | 1021.2 |
| 20260507132035 | 50 | 0 | 0.0 | 2.6 | 0.00 | 0.00 | 0.00 | 62 | 1021.2 |
| 20260507131545 | 49 | 0 | 0.0 | 2.6 | 0.00 | 0.00 | 0.00 | 63 | 1021.2 |
| 20260507131038 | 48 | 0 | 0.0 | 0.0 | 0.00 | 0.00 | 0.00 | 62 | 1021.2 |
| 20260507130538 | 46 | 0 | 0.0 | 0.0 | 0.00 | 0.00 | 0.00 | 63 | 1021.2 |
| 20260507130045 | 44 | 0 | 0.0 | 0.0 | 0.00 | 0.00 | 0.00 | 65 | 1021.2 |
| 20260507125538 | 43 | 0 | 0.0 | 0.0 | 0.00 | 0.00 | 0.00 | 63 | 1021.2 |
| 20260507125040 | 42 | 0 | 0.0 | 0.0 | 0.00 | 0.00 | 0.00 | 64 | 1021.2 |
| 20260507124547 | 40 | 0 | 0.0 | 0.0 | 0.00 | 0.00 | 0.00 | 66 | 1021.2 |
| 20260507124039 | 39 | 0 | 0.0 | 0.0 | 0.00 | 0.00 | 0.00 | 67 | 1021.2 |
| 20260507123539 | 38 | 0 | 0.0 | 0.0 | 0.00 | 0.00 | 0.00 | 68 | 1021.2 |
| 20260507123043 | 37 | 0 | 0.0 | 0.0 | 0.00 | 0.00 | 0.00 | 71 | 1021.2 |
| 20260507122538 | 36 | 0 | 0.0 | 0.0 | 0.00 | 0.00 | 0.00 | 69 | 1021.2 |
| 20260507122039 | 37 | 0 | 0.0 | 0.0 | 0.00 | 0.00 | 0.00 | 68 | 1021.2 |
| 20260507121550 | 37 | 0 | 0.0 | 0.0 | 0.00 | 0.00 | 0.00 | 69 | 1021.2 |
| 20260507121035 | 37 | 0 | 0.0 | 0.0 | 0.00 | 0.00 | 0.00 | 68 | 1021.2 |
| 20260507120538 | 37 | 0 | 0.0 | 0.0 | 0.00 | 0.00 | 0.00 | 67 | 1021.2 |
| 20260507120059 | 37 | 0 | 0.0 | 0.0 | 0.00 | 0.00 | 0.00 | 66 | 1021.2 |
| 20260507115539 | 37 | 0 | 0.0 | 0.0 | 0.00 | 0.00 | 0.00 | 65 | 1021.2 |
| 20260507115040 | 38 | 0 | 0.0 | 0.0 | 0.00 | 0.00 | 0.00 | 65 | 1021.2 |
| 20260507114546 | 38 | 0 | 0.0 | 0.0 | 0.00 | 0.00 | 0.00 | 64 | 1021.2 |
| 20260507114038 | 38 | 0 | 0.0 | 0.0 | 0.00 | 0.00 | 0.00 | 63 | 1021.2 |
| 20260507113539 | 39 | 0 | 0.0 | 0.0 | 0.00 | 0.00 | 0.00 | 62 | 1021.2 |
| 20260507113050 | 39 | 0 | 0.0 | 0.0 | 0.00 | 0.00 | 0.00 | 62 | 1021.2 |
| 20260507112538 | 39 | 0 | 0.0 | 0.0 | 0.00 | 0.00 | 0.00 | 61 | 1021.2 |
| 20260507112038 | 40 | 0 | 0.0 | 0.0 | 0.00 | 0.00 | 0.00 | 62 | 1021.2 |
| 20260507111547 | 40 | 0 | 0.0 | 0.0 | 0.00 | 0.00 | 0.00 | 61 | 1021.2 |
| 20260507111039 | 40 | 0 | 0.0 | 0.0 | 0.00 | 0.00 | 0.00 | 61 | 1021.2 |
| 20260507110540 | 40 | 0 | 0.0 | 0.0 | 0.00 | 0.00 | 0.00 | 59 | 1021.2 |
| 20260507110043 | 41 | 0 | 0.0 | 0.0 | 0.00 | 0.00 | 0.00 | 59 | 1021.2 |
| 20260507105537 | 42 | 0 | 0.0 | 0.0 | 0.00 | 0.00 | 0.00 | 58 | 1021.2 |
| 20260507105039 | 41 | 0 | 0.0 | 0.0 | 0.00 | 0.00 | 0.00 | 57 | 1021.2 |
| 20260507104547 | 42 | 0 | 0.0 | 0.0 | 0.00 | 0.00 | 0.00 | 56 | 1021.2 |
| 20260507104038 | 43 | 0 | 0.0 | 0.0 | 0.00 | 0.00 | 0.00 | 54 | 1021.2 |
| 20260507103539 | 43 | 0 | 0.0 | 0.0 | 0.00 | 0.00 | 0.00 | 56 | 1021.2 |
| 20260507103047 | 43 | 0 | 0.0 | 0.9 | 0.00 | 0.00 | 0.00 | 55 | 1021.2 |
| 20260507102539 | 43 | 0 | 0.0 | 0.9 | 0.00 | 0.00 | 0.00 | 55 | 1021.2 |
| 20260507102042 | 43 | 0 | 0.0 | 1.7 | 0.00 | 0.00 | 0.00 | 54 | 1021.2 |
| 20260507101552 | 44 | 0 | 0.0 | 3.5 | 0.00 | 0.00 | 0.00 | 53 | 1021.2 |
| 20260507101038 | 43 | 0 | 0.9 | 3.5 | 0.00 | 0.00 | 0.00 | 54 | 1021.2 |
| 20260507100542 | 43 | 221 | 1.7 | 3.5 | 0.00 | 0.00 | 0.00 | 55 | 1021.2 |
| 20260507100047 | 41 | 253 | 0.9 | 2.6 | 0.00 | 0.00 | 0.00 | 58 | 1021.2 |
| 20260507095538 | 41 | 0 | 0.0 | 0.0 | 0.00 | 0.00 | 0.00 | 60 | 1021.2 |
| 20260507095037 | 41 | 0 | 0.0 | 0.0 | 0.00 | 0.00 | 0.00 | 58 | 1021.2 |
| 20260507094550 | 42 | 0 | 0.0 | 0.0 | 0.00 | 0.00 | 0.00 | 57 | 1021.2 |
| 20260507094039 | 41 | 0 | 0.0 | 0.0 | 0.00 | 0.00 | 0.00 | 59 | 1021.2 |
| 20260507093539 | 41 | 0 | 0.0 | 0.0 | 0.00 | 0.00 | 0.00 | 59 | 1021.2 |
| 20260507093048 | 41 | 0 | 0.0 | 0.0 | 0.00 | 0.00 | 0.00 | 60 | 1021.2 |
| 20260507092539 | 41 | 0 | 0.0 | 0.0 | 0.00 | 0.00 | 0.00 | 62 | 1021.2 |
| 20260507092042 | 41 | 0 | 0.0 | 0.0 | 0.00 | 0.00 | 0.00 | 60 | 1021.2 |
| 20260507091549 | 42 | 0 | 0.0 | 0.0 | 0.00 | 0.00 | 0.00 | 60 | 1021.2 |
| 20260507091039 | 42 | 0 | 0.0 | 0.0 | 0.00 | 0.00 | 0.00 | 60 | 1021.2 |
| 20260507090539 | 42 | 0 | 0.0 | 0.0 | 0.00 | 0.00 | 0.00 | 58 | 1021.2 |
| 20260507090048 | 43 | 0 | 0.0 | 0.0 | 0.00 | 0.00 | 0.00 | 58 | 1021.2 |
| 20260507085538 | 43 | 0 | 0.0 | 0.0 | 0.00 | 0.00 | 0.00 | 56 | 1021.2 |
| 20260507085041 | 44 | 0 | 0.0 | 0.0 | 0.00 | 0.00 | 0.00 | 55 | 1021.2 |
| 20260507084549 | 44 | 0 | 0.0 | 0.0 | 0.00 | 0.00 | 0.00 | 54 | 1021.2 |
| 20260507084040 | 45 | 0 | 0.0 | 0.0 | 0.00 | 0.00 | 0.00 | 53 | 1021.2 |
| 20260507083538 | 45 | 0 | 0.0 | 0.0 | 0.00 | 0.00 | 0.00 | 53 | 1021.2 |
| 20260507083047 | 45 | 0 | 0.0 | 0.0 | 0.00 | 0.00 | 0.00 | 53 | 1021.2 |
| 20260507082539 | 45 | 0 | 0.0 | 0.0 | 0.00 | 0.00 | 0.00 | 53 | 1021.2 |
| 20260507082041 | 44 | 0 | 0.0 | 0.0 | 0.00 | 0.00 | 0.00 | 55 | 1021.2 |
| 20260507081551 | 43 | 0 | 0.0 | 0.0 | 0.00 | 0.00 | 0.00 | 56 | 1021.2 |
| 20260507081040 | 43 | 0 | 0.0 | 0.0 | 0.00 | 0.00 | 0.00 | 57 | 1021.2 |
| 20260507080540 | 43 | 0 | 0.0 | 0.0 | 0.00 | 0.00 | 0.00 | 57 | 1021.2 |
| 20260507080051 | 43 | 0 | 0.0 | 0.0 | 0.00 | 0.00 | 0.00 | 56 | 1021.2 |
| 20260507075540 | 43 | 0 | 0.0 | 0.0 | 0.00 | 0.00 | 0.00 | 57 | 1021.2 |
| 20260507075040 | 43 | 0 | 0.0 | 0.0 | 0.00 | 0.00 | 0.00 | 57 | 1021.2 |
| 20260507074556 | 43 | 0 | 0.0 | 0.0 | 0.00 | 0.00 | 0.00 | 57 | 1021.2 |
| 20260507074039 | 43 | 0 | 0.0 | 0.0 | 0.00 | 0.00 | 0.00 | 57 | 1021.2 |
| 20260507073540 | 43 | 0 | 0.0 | 0.0 | 0.00 | 0.00 | 0.00 | 57 | 1021.2 |
| 20260507073121 | 43 | 0 | 0.0 | 0.0 | 0.00 | 0.00 | 0.00 | 56 | 1021.2 |
| 20260507072540 | 44 | 0 | 0.0 | 0.0 | 0.00 | 0.00 | 0.00 | 55 | 1021.2 |
| 20260507072039 | 44 | 0 | 0.0 | 0.0 | 0.00 | 0.00 | 0.00 | 55 | 1021.2 |
| 20260507071546 | 45 | 0 | 0.0 | 0.0 | 0.00 | 0.00 | 0.00 | 53 | 1021.2 |
| 20260507071040 | 45 | 0 | 0.0 | 0.0 | 0.00 | 0.00 | 0.00 | 52 | 1021.2 |
| 20260507070539 | 46 | 0 | 0.0 | 0.0 | 0.00 | 0.00 | 0.00 | 51 | 1021.2 |
| 20260507070051 | 46 | 0 | 0.0 | 0.0 | 0.00 | 0.00 | 0.00 | 51 | 1021.2 |
| 20260507065540 | 46 | 0 | 0.0 | 0.0 | 0.00 | 0.00 | 0.00 | 52 | 1021.2 |
| 20260507065041 | 46 | 0 | 0.0 | 0.0 | 0.00 | 0.00 | 0.00 | 51 | 1021.2 |
| 20260507064604 | 46 | 0 | 0.0 | 1.7 | 0.00 | 0.00 | 0.00 | 51 | 1021.2 |
| 20260507064040 | 46 | 0 | 0.0 | 1.7 | 0.00 | 0.00 | 0.00 | 52 | 1021.2 |
| 20260507063540 | 45 | 0 | 0.0 | 0.0 | 0.00 | 0.00 | 0.00 | 52 | 1021.2 |
| 20260507063057 | 45 | 0 | 0.0 | 0.0 | 0.00 | 0.00 | 0.00 | 53 | 1021.2 |
| 20260507062540 | 45 | 0 | 0.0 | 1.7 | 0.00 | 0.00 | 0.00 | 52 | 1021.2 |
| 20260507062040 | 46 | 0 | 0.0 | 1.7 | 0.00 | 0.00 | 0.00 | 52 | 1021.2 |
| 20260507061546 | 46 | 219 | 0.0 | 0.0 | 0.00 | 0.00 | 0.00 | 51 | 1021.2 |
| 20260507061039 | 45 | 0 | 0.0 | 0.0 | 0.00 | 0.00 | 0.00 | 52 | 1021.2 |
| 20260507060540 | 45 | 0 | 0.0 | 0.0 | 0.00 | 0.00 | 0.00 | 53 | 1021.2 |
| 20260507060051 | 45 | 0 | 0.0 | 0.0 | 0.00 | 0.00 | 0.00 | 52 | 1021.2 |
| 20260507055540 | 46 | 0 | 0.0 | 0.0 | 0.00 | 0.00 | 0.00 | 51 | 1021.2 |
| 20260507055040 | 46 | 0 | 0.0 | 0.0 | 0.00 | 0.00 | 0.00 | 51 | 1021.2 |
| 20260507054544 | 46 | 0 | 0.0 | 0.0 | 0.00 | 0.00 | 0.00 | 51 | 1021.2 |
| 20260507054039 | 46 | 0 | 0.0 | 0.0 | 0.00 | 0.00 | 0.00 | 50 | 1021.2 |
| 20260507053539 | 46 | 0 | 0.0 | 0.0 | 0.00 | 0.00 | 0.00 | 50 | 1021.2 |
| 20260507053045 | 47 | 0 | 0.0 | 0.9 | 0.00 | 0.00 | 0.00 | 49 | 1021.2 |
| 20260507052540 | 47 | 0 | 0.0 | 0.9 | 0.00 | 0.00 | 0.00 | 49 | 1021.2 |
| 20260507052039 | 47 | 276 | 0.0 | 0.9 | 0.00 | 0.00 | 0.00 | 50 | 1021.2 |
| 20260507051551 | 47 | 0 | 0.0 | 0.9 | 0.00 | 0.00 | 0.00 | 49 | 1021.2 |
| 20260507051042 | 47 | 0 | 0.0 | 0.0 | 0.00 | 0.00 | 0.00 | 50 | 1021.2 |
| 20260507050540 | 47 | 0 | 0.0 | 0.0 | 0.00 | 0.00 | 0.00 | 49 | 1021.2 |
| 20260507050058 | 47 | 0 | 0.0 | 0.0 | 0.00 | 0.00 | 0.00 | 50 | 1021.2 |
| 20260507045540 | 47 | 0 | 0.0 | 0.0 | 0.00 | 0.00 | 0.00 | 49 | 1021.2 |
| 20260507045040 | 47 | 0 | 0.0 | 0.0 | 0.00 | 0.00 | 0.00 | 50 | 1021.2 |
| 20260507044549 | 47 | 0 | 0.0 | 0.0 | 0.00 | 0.00 | 0.00 | 49 | 1021.2 |
| 20260507044039 | 47 | 0 | 0.0 | 0.0 | 0.00 | 0.00 | 0.00 | 50 | 1021.2 |
| 20260507043540 | 47 | 0 | 0.0 | 0.0 | 0.00 | 0.00 | 0.00 | 48 | 1021.2 |
| 20260507043051 | 47 | 0 | 0.0 | 0.0 | 0.00 | 0.00 | 0.00 | 50 | 1021.2 |
| 20260507042539 | 47 | 0 | 0.0 | 0.0 | 0.00 | 0.00 | 0.00 | 49 | 1021.2 |
| 20260507042040 | 48 | 0 | 0.0 | 0.0 | 0.00 | 0.00 | 0.00 | 48 | 1021.2 |
| 20260507041550 | 48 | 0 | 0.0 | 0.0 | 0.00 | 0.00 | 0.00 | 48 | 1021.2 |
| 20260507041039 | 48 | 0 | 0.0 | 0.0 | 0.00 | 0.00 | 0.00 | 47 | 1021.2 |
| 20260507040540 | 49 | 0 | 0.0 | 0.0 | 0.00 | 0.00 | 0.00 | 46 | 1021.2 |
| 20260507040046 | 49 | 0 | 0.0 | 0.0 | 0.00 | 0.00 | 0.00 | 46 | 1021.2 |
| 20260507035539 | 50 | 0 | 0.0 | 0.0 | 0.00 | 0.00 | 0.00 | 45 | 1021.2 |
| 20260507035040 | 50 | 0 | 0.0 | 0.0 | 0.00 | 0.00 | 0.00 | 44 | 1021.2 |
| 20260507034615 | 51 | 0 | 0.0 | 0.0 | 0.00 | 0.00 | 0.00 | 43 | 1021.2 |
| 20260507034040 | 51 | 0 | 0.0 | 0.0 | 0.00 | 0.00 | 0.00 | 43 | 1021.2 |
| 20260507033539 | 51 | 0 | 0.0 | 0.0 | 0.00 | 0.00 | 0.00 | 42 | 1021.2 |
| 20260507033103 | 52 | 0 | 0.0 | 0.0 | 0.00 | 0.00 | 0.00 | 41 | 1021.2 |
| 20260507032538 | 53 | 0 | 0.0 | 0.0 | 0.00 | 0.00 | 0.00 | 41 | 1021.2 |
| 20260507032039 | 53 | 0 | 0.0 | 0.0 | 0.00 | 0.00 | 0.00 | 40 | 1021.2 |
| 20260507031548 | 52 | 0 | 0.0 | 0.0 | 0.00 | 0.00 | 0.00 | 40 | 1021.2 |
| 20260507031040 | 52 | 0 | 0.0 | 0.0 | 0.00 | 0.00 | 0.00 | 40 | 1021.2 |
| 20260507030543 | 52 | 0 | 0.0 | 0.0 | 0.00 | 0.00 | 0.00 | 39 | 1021.2 |
| 20260507030047 | 52 | 0 | 0.0 | 0.0 | 0.00 | 0.00 | 0.00 | 40 | 1021.2 |
| 20260507025539 | 52 | 0 | 0.0 | 0.0 | 0.00 | 0.00 | 0.00 | 40 | 1021.2 |
| 20260507025039 | 52 | 0 | 0.0 | 0.0 | 0.00 | 0.00 | 0.00 | 41 | 1021.2 |
| 20260507024557 | 52 | 0 | 0.0 | 0.0 | 0.00 | 0.00 | 0.00 | 39 | 1021.2 |
| 20260507024043 | 53 | 0 | 0.0 | 0.0 | 0.00 | 0.00 | 0.00 | 40 | 1021.2 |
| 20260507023542 | 53 | 0 | 0.0 | 0.0 | 0.00 | 0.00 | 0.00 | 40 | 1021.2 |
| 20260507023050 | 54 | 0 | 0.0 | 0.0 | 0.00 | 0.00 | 0.00 | 37 | 1021.2 |
| 20260507022540 | 54 | 0 | 0.0 | 0.0 | 0.00 | 0.00 | 0.00 | 38 | 1021.2 |
| 20260507022039 | 55 | 0 | 0.0 | 0.0 | 0.00 | 0.00 | 0.00 | 36 | 1021.2 |
| 20260507021558 | 56 | 0 | 0.0 | 0.0 | 0.00 | 0.00 | 0.00 | 36 | 1021.2 |
| 20260507021044 | 57 | 0 | 0.0 | 0.0 | 0.00 | 0.00 | 0.00 | 33 | 1021.2 |
| 20260507020540 | 58 | 0 | 0.0 | 0.0 | 0.00 | 0.00 | 0.00 | 33 | 1021.2 |
| 20260507020051 | 59 | 0 | 0.0 | 0.0 | 0.00 | 0.00 | 0.00 | 32 | 1021.2 |
| 20260507015539 | 59 | 0 | 0.0 | 0.0 | 0.00 | 0.00 | 0.00 | 30 | 1021.2 |
| 20260507015040 | 60 | 0 | 0.0 | 0.0 | 0.00 | 0.00 | 0.00 | 29 | 1021.2 |
| 20260507014549 | 61 | 0 | 0.0 | 0.0 | 0.00 | 0.00 | 0.00 | 29 | 1021.2 |
| 20260507014040 | 63 | 0 | 0.0 | 0.0 | 0.00 | 0.00 | 0.00 | 28 | 1021.2 |
| 20260507013539 | 64 | 0 | 0.0 | 0.0 | 0.00 | 0.00 | 0.00 | 27 | 1021.2 |
| 20260507013058 | 65 | 0 | 0.0 | 0.0 | 0.00 | 0.00 | 0.00 | 24 | 1021.2 |
| 20260507012539 | 67 | 0 | 0.0 | 0.0 | 0.00 | 0.00 | 0.00 | 23 | 1021.2 |
| 20260507012040 | 67 | 0 | 0.0 | 0.0 | 0.00 | 0.00 | 0.00 | 22 | 1021.2 |
| 20260507011545 | 68 | 0 | 0.0 | 0.0 | 0.00 | 0.00 | 0.00 | 21 | 1021.2 |
| 20260507011039 | 69 | 0 | 0.0 | 2.6 | 0.00 | 0.00 | 0.00 | 21 | 1021.2 |
| 20260507010539 | 69 | 0 | 0.0 | 2.6 | 0.00 | 0.00 | 0.00 | 20 | 1021.2 |
| 20260507010048 | 70 | 328 | 0.0 | 4.3 | 0.00 | 0.00 | 0.00 | 20 | 1021.2 |
| 20260507005541 | 72 | 72 | 0.0 | 4.3 | 0.00 | 0.00 | 0.00 | 19 | 1021.2 |
| 20260507005040 | 73 | 346 | 0.0 | 1.7 | 0.00 | 0.00 | 0.00 | 19 | 1021.2 |
| 20260507004549 | 73 | 0 | 0.0 | 5.2 | 0.00 | 0.00 | 0.00 | 18 | 1021.2 |
| 20260507004040 | 73 | 0 | 0.0 | 5.2 | 0.00 | 0.00 | 0.00 | 18 | 1021.2 |
| 20260507003541 | 73 | 240 | 1.7 | 5.2 | 0.00 | 0.00 | 0.00 | 18 | 1021.2 |
| 20260507003047 | 73 | 345 | 0.0 | 4.3 | 0.00 | 0.00 | 0.00 | 18 | 1021.2 |
| 20260507002540 | 73 | 0 | 0.0 | 6.1 | 0.00 | 0.00 | 0.00 | 18 | 1021.2 |
| 20260507002040 | 74 | 275 | 1.7 | 6.1 | 0.00 | 0.00 | 0.00 | 18 | 1021.2 |
| 20260507001610 | 74 | 0 | 0.0 | 6.1 | 0.00 | 0.00 | 0.00 | 17 | 1021.2 |
| 20260507001039 | 74 | 204 | 0.0 | 7.8 | 0.00 | 0.00 | 0.00 | 17 | 1021.2 |
| 20260507000540 | 73 | 0 | 0.9 | 7.8 | 0.00 | 0.00 | 0.00 | 17 | 1021.2 |
| 20260507000048 | 73 | 214 | 2.6 | 7.8 | 0.00 | 0.00 | 0.00 | 17 | 1021.2 |
| 20260506235539 | 74 | 308 | 0.9 | 5.2 | 0.00 | 0.00 | 0.00 | 18 | 1021.2 |
| 20260506235040 | 74 | 279 | 0.9 | 7.8 | 0.00 | 0.00 | 0.00 | 19 | 1021.2 |
| 20260506234556 | 74 | 0 | 0.9 | 11.3 | 0.00 | 0.00 | 0.00 | 18 | 1021.2 |
| 20260506234039 | 74 | 226 | 5.2 | 11.3 | 0.00 | 0.00 | 0.00 | 18 | 1021.2 |
| 20260506233541 | 74 | 0 | 2.6 | 8.7 | 0.00 | 0.00 | 0.00 | 20 | 1021.2 |
| 20260506233053 | 73 | 0 | 0.0 | 10.4 | 0.00 | 0.00 | 0.00 | 19 | 1021.2 |
| 20260506232539 | 73 | 359 | 2.6 | 10.4 | 0.00 | 0.00 | 0.00 | 20 | 1021.2 |
| 20260506232040 | 73 | 286 | 0.9 | 9.6 | 0.00 | 0.00 | 0.00 | 19 | 1021.2 |
| 20260506231552 | 74 | 257 | 2.6 | 11.3 | 0.00 | 0.00 | 0.00 | 18 | 1021.2 |
| 20260506231039 | 74 | 210 | 3.5 | 11.3 | 0.00 | 0.00 | 0.00 | 18 | 1021.2 |
| 20260506230539 | 74 | 231 | 3.5 | 8.7 | 0.00 | 0.00 | 0.00 | 18 | 1021.2 |
| 20260506230042 | 74 | 247 | 3.5 | 8.7 | 0.00 | 0.00 | 0.00 | 19 | 1021.2 |
| 20260506225543 | 75 | 283 | 0.0 | 7.0 | 0.00 | 0.00 | 0.00 | 19 | 1021.2 |
| 20260506225041 | 74 | 0 | 0.0 | 7.0 | 0.00 | 0.00 | 0.00 | 21 | 1021.2 |
| 20260506224605 | 74 | 222 | 1.7 | 8.7 | 0.00 | 0.00 | 0.00 | 21 | 1021.2 |
| 20260506224039 | 74 | 0 | 1.7 | 10.4 | 0.00 | 0.00 | 0.00 | 20 | 1021.2 |
| 20260506223540 | 74 | 196 | 1.7 | 10.4 | 0.00 | 0.00 | 0.00 | 22 | 1021.2 |
| 20260506223043 | 74 | 203 | 3.5 | 9.6 | 0.00 | 0.00 | 0.00 | 21 | 1021.2 |
| 20260506222541 | 73 | 0 | 0.9 | 8.7 | 0.00 | 0.00 | 0.00 | 22 | 1021.2 |
| 20260506222040 | 73 | 226 | 1.7 | 11.3 | 0.00 | 0.00 | 0.00 | 21 | 1021.2 |
| 20260506221546 | 73 | 230 | 3.5 | 11.3 | 0.00 | 0.00 | 0.00 | 21 | 1021.2 |
| 20260506221039 | 73 | 283 | 5.2 | 11.3 | 0.00 | 0.00 | 0.00 | 22 | 1021.2 |
| 20260506220539 | 73 | 261 | 0.9 | 11.3 | 0.00 | 0.00 | 0.00 | 22 | 1021.2 |
| 20260506215541 | 73 | 226 | 4.3 | 12.2 | 0.00 | 0.00 | 0.00 | 21 | 1021.2 |
| 20260506215041 | 74 | 212 | 7.0 | 12.2 | 0.00 | 0.00 | 0.00 | 21 | 1021.2 |
| 20260506214545 | 75 | 240 | 4.3 | 10.4 | 0.00 | 0.00 | 0.00 | 21 | 1021.2 |
| 20260506214039 | 74 | 191 | 0.9 | 11.3 | 0.00 | 0.00 | 0.00 | 22 | 1021.2 |
| 20260506213539 | 74 | 216 | 3.5 | 11.3 | 0.00 | 0.00 | 0.00 | 22 | 1021.2 |
| 20260506213049 | 74 | 239 | 3.5 | 13.0 | 0.00 | 0.00 | 0.00 | 22 | 1021.2 |
| 20260506212540 | 75 | 244 | 6.1 | 13.0 | 0.00 | 0.00 | 0.00 | 22 | 1021.2 |
| 20260506212040 | 76 | 206 | 4.3 | 12.2 | 0.00 | 0.00 | 0.00 | 21 | 1021.2 |
| 20260506211554 | 76 | 15 | 0.9 | 9.6 | 0.00 | 0.00 | 0.00 | 20 | 1021.2 |
| 20260506211040 | 75 | 316 | 2.6 | 9.6 | 0.00 | 0.00 | 0.00 | 21 | 1021.2 |
| 20260506210540 | 75 | 0 | 1.7 | 7.8 | 0.00 | 0.00 | 0.00 | 21 | 1021.2 |
| 20260506210047 | 74 | 299 | 3.5 | 7.0 | 0.00 | 0.00 | 0.00 | 21 | 1021.2 |
| 20260506205539 | 74 | 319 | 1.7 | 10.4 | 0.00 | 0.00 | 0.00 | 21 | 1021.2 |
| 20260506205039 | 74 | 196 | 3.5 | 11.3 | 0.00 | 0.00 | 0.00 | 19 | 1021.2 |
| 20260506204545 | 74 | 233 | 2.6 | 11.3 | 0.00 | 0.00 | 0.00 | 22 | 1021.2 |
| 20260506204039 | 74 | 183 | 4.3 | 11.3 | 0.00 | 0.00 | 0.00 | 21 | 1021.2 |
| 20260506203540 | 74 | 191 | 1.7 | 12.2 | 0.00 | 0.00 | 0.00 | 22 | 1021.2 |
| 20260506203058 | 73 | 314 | 6.1 | 12.2 | 0.00 | 0.00 | 0.00 | 21 | 1021.2 |
| 20260506202541 | 73 | 229 | 3.5 | 12.2 | 0.00 | 0.00 | 0.00 | 20 | 1021.2 |
| 20260506202039 | 73 | 241 | 5.2 | 10.4 | 0.00 | 0.00 | 0.00 | 22 | 1021.2 |
| 20260506201551 | 73 | 0 | 3.5 | 10.4 | 0.00 | 0.00 | 0.00 | 22 | 1021.2 |
| 20260506201040 | 72 | 221 | 4.3 | 9.6 | 0.00 | 0.00 | 0.00 | 23 | 1021.2 |
| 20260506200539 | 72 | 311 | 4.3 | 9.6 | 0.00 | 0.00 | 0.00 | 23 | 1021.2 |
| 20260506200054 | 72 | 219 | 3.5 | 7.8 | 0.00 | 0.00 | 0.00 | 23 | 1021.2 |
| 20260506195540 | 71 | 160 | 3.5 | 7.8 | 0.00 | 0.00 | 0.00 | 24 | 1021.2 |
| 20260506195041 | 70 | 145 | 1.7 | 6.1 | 0.00 | 0.00 | 0.00 | 25 | 1021.2 |
| 20260506194553 | 70 | 186 | 0.9 | 7.0 | 0.00 | 0.00 | 0.00 | 24 | 1021.2 |
| 20260506194040 | 70 | 249 | 1.7 | 7.8 | 0.00 | 0.00 | 0.00 | 24 | 1021.2 |
| 20260506193540 | 70 | 349 | 3.5 | 10.4 | 0.00 | 0.00 | 0.00 | 25 | 1021.2 |
| 20260506193052 | 70 | 234 | 2.6 | 10.4 | 0.00 | 0.00 | 0.00 | 25 | 1021.2 |
| 20260506192540 | 70 | 213 | 3.5 | 8.7 | 0.00 | 0.00 | 0.00 | 24 | 1021.2 |
| 20260506192040 | 71 | 218 | 3.5 | 8.7 | 0.00 | 0.00 | 0.00 | 23 | 1021.2 |
| 20260506191548 | 70 | 196 | 3.5 | 11.3 | 0.00 | 0.00 | 0.00 | 24 | 1021.2 |
| 20260506191040 | 70 | 217 | 3.5 | 12.2 | 0.00 | 0.00 | 0.00 | 22 | 1021.2 |
| 20260506190542 | 70 | 263 | 7.8 | 12.2 | 0.00 | 0.00 | 0.00 | 22 | 1021.2 |
| 20260506190045 | 71 | 183 | 3.5 | 11.3 | 0.00 | 0.00 | 0.00 | 23 | 1021.2 |
| 20260506185539 | 70 | 253 | 7.0 | 11.3 | 0.00 | 0.00 | 0.00 | 25 | 1021.2 |
| 20260506185040 | 70 | 246 | 3.5 | 8.7 | 0.00 | 0.00 | 0.00 | 25 | 1021.2 |
| 20260506184543 | 70 | 348 | 2.6 | 7.8 | 0.00 | 0.00 | 0.00 | 27 | 1021.2 |
| 20260506184040 | 70 | 317 | 2.6 | 9.6 | 0.00 | 0.00 | 0.00 | 25 | 1021.2 |
| 20260506183543 | 70 | 328 | 1.7 | 12.2 | 0.00 | 0.00 | 0.00 | 27 | 1021.2 |
| 20260506183058 | 69 | 204 | 4.3 | 12.2 | 0.00 | 0.00 | 0.00 | 25 | 1021.2 |
| 20260506182540 | 70 | 226 | 2.6 | 9.6 | 0.00 | 0.00 | 0.00 | 27 | 1021.2 |
| 20260506182039 | 69 | 295 | 4.3 | 9.6 | 0.00 | 0.00 | 0.00 | 28 | 1021.2 |
| 20260506181559 | 69 | 212 | 3.5 | 9.6 | 0.00 | 0.00 | 0.00 | 28 | 1021.2 |
| 20260506181040 | 69 | 278 | 3.5 | 9.6 | 0.00 | 0.00 | 0.00 | 28 | 1021.2 |